{"data":{"norad_id":52541,"intl_designator":"2022-051J","name":"STARLINK-3845","alt_names":[],"object_type":"PAYLOAD","status":"ACTIVE","operator":null,"country":"US","launch_date":"2022-05-13","launch_site_code":"AFWTR","launch_vehicle":null,"mission":null,"orbit_class":"UNKNOWN","rcs_meters":null,"size_class":null,"mass_kg":null,"dimensions":null,"purposes":["comms"],"wikipedia_slug":null,"has_3d_model":false,"image_url":null,"decayed_at":null,"tle_current":{"epoch":"2026-09-19T22:06:44.343648Z","epoch_age_seconds":113308,"freshness":"FRESH","line1":"1 52541U 22051J   26262.92134657  .00000055  00000+0  12479-4 0  9998","line2":"2 52541  53.1598 328.7615 0001235  81.8758 278.2385 15.35401513240874","mean_motion":15.35401513,"eccentricity":0.0001235,"inclination_deg":53.1598,"raan_deg":328.7615,"arg_perigee_deg":81.8758,"mean_anomaly_deg":278.2385,"bstar":1.2479e-5,"rev_number":24087,"period_min":93.786542986167,"perigee_km":458.88367432418,"apogee_km":460.57262701639,"semimajor_km":6837.8651506703,"source":"CELESTRAK","updated_at":"2026-09-20T09:00:40.059686Z"}}}